Time,TemperatureF,DewpointF,PressureIn,WindDirection,WindDirectionDegrees,WindSpeedMPH,WindSpeedGustMPH,Humidity,HourlyPrecipIn,Conditions,Clouds,dailyrainin,SoftwareType,DateUTC
2013-01-19 00:00:00,71.0,61.1,29.91,NNE,31,5.0,5.0,71,0.00,,,0.00,Wunderground v.1.15,2013-01-19 10:00:00,
2013-01-19 00:05:00,71.0,61.1,29.91,NNE,13,6.0,6.0,71,0.00,,,0.00,Wunderground v.1.15,2013-01-19 10:05:00,
2013-01-19 00:20:00,70.9,60.2,29.91,North,360,5.0,5.0,69,0.00,,,0.00,Wunderground v.1.15,2013-01-19 10:20:00,
2013-01-19 00:30:00,70.8,59.7,29.91,NE,36,5.0,5.0,68,0.00,,,0.00,Wunderground v.1.15,2013-01-19 10:30:00,
2013-01-19 00:40:00,70.7,60.0,29.91,NNE,14,5.0,7.0,69,0.00,,,0.00,Wunderground v.1.15,2013-01-19 10:40:00,
2013-01-19 00:50:00,70.7,59.2,29.91,NNE,25,4.0,4.0,67,0.00,,,0.00,Wunderground v.1.15,2013-01-19 10:50:00,
2013-01-19 01:00:00,70.5,59.0,29.91,NNE,30,4.0,4.0,67,0.00,,,0.00,Wunderground v.1.15,2013-01-19 11:00:00,
2013-01-19 01:05:00,70.5,59.0,29.91,NE,36,5.0,10.0,67,0.00,,,0.00,Wunderground v.1.15,2013-01-19 11:05:00,
2013-01-19 02:50:00,69.8,56.2,29.90,NNE,28,5.0,6.0,62,0.00,,,0.00,Wunderground v.1.15,2013-01-19 12:50:00,
2013-01-19 02:55:00,69.7,56.1,29.90,NNE,23,5.0,6.0,62,0.00,,,0.00,Wunderground v.1.15,2013-01-19 12:55:00,
2013-01-19 03:05:00,69.7,56.5,29.90,NNE,30,5.0,5.0,63,0.00,,,0.00,Wunderground v.1.15,2013-01-19 13:05:00,
2013-01-19 03:15:00,69.6,56.9,29.90,NNE,28,5.0,5.0,64,0.00,,,0.00,Wunderground v.1.15,2013-01-19 13:15:00,
2013-01-19 03:20:00,69.5,57.6,29.90,NNE,28,4.0,5.0,66,0.00,,,0.00,Wunderground v.1.15,2013-01-19 13:20:00,
2013-01-19 03:25:00,69.5,57.6,29.90,NNE,30,3.0,5.0,66,0.00,,,0.00,Wunderground v.1.15,2013-01-19 13:25:00,
2013-01-19 03:30:00,69.4,58.0,29.90,NNE,25,4.0,4.0,67,0.00,,,0.00,Wunderground v.1.15,2013-01-19 13:30:00,
2013-01-19 03:40:00,69.4,57.1,29.90,NE,38,4.0,4.0,65,0.00,,,0.00,Wunderground v.1.15,2013-01-19 13:40:00,
2013-01-19 03:45:00,69.4,58.0,29.90,NE,37,4.0,6.0,67,0.00,,,0.00,Wunderground v.1.15,2013-01-19 13:45:00,
2013-01-19 03:55:00,69.2,58.2,29.90,NNE,29,4.0,5.0,68,0.00,,,0.00,Wunderground v.1.15,2013-01-19 13:55:00,
2013-01-19 04:05:00,69.0,56.7,29.91,NE,41,4.0,5.0,65,0.00,,,0.00,Wunderground v.1.15,2013-01-19 14:05:00,
2013-01-19 04:15:00,69.1,57.7,29.91,North,5,4.0,4.0,67,0.00,,,0.00,Wunderground v.1.15,2013-01-19 14:15:00,
2013-01-19 04:25:00,69.1,56.8,29.91,NE,44,5.0,6.0,65,0.00,,,0.00,Wunderground v.1.15,2013-01-19 14:25:00,
2013-01-19 04:35:00,69.1,56.0,29.91,NNE,25,5.0,5.0,63,0.00,,,0.00,Wunderground v.1.15,2013-01-19 14:35:00,
2013-01-19 04:40:00,69.0,56.3,29.91,NNE,32,4.0,4.0,64,0.00,,,0.00,Wunderground v.1.15,2013-01-19 14:40:00,
2013-01-19 04:50:00,69.1,56.4,29.92,WNW,303,6.0,9.0,64,0.00,,,0.00,Wunderground v.1.15,2013-01-19 14:50:00,
2013-01-19 04:55:00,69.0,56.3,29.92,NW,319,5.0,9.0,64,0.00,,,0.00,Wunderground v.1.15,2013-01-19 14:55:00,
2013-01-19 05:05:00,69.1,55.5,29.92,NNE,33,5.0,7.0,62,0.00,,,0.00,Wunderground v.1.15,2013-01-19 15:05:00,
2013-01-19 05:15:00,69.1,57.3,29.92,NNE,22,5.0,8.0,66,0.00,,,0.00,Wunderground v.1.15,2013-01-19 15:15:00,
2013-01-19 05:25:00,69.0,55.4,29.92,NE,38,5.0,10.0,62,0.00,,,0.00,Wunderground v.1.15,2013-01-19 15:25:00,
2013-01-19 05:35:00,68.8,56.1,29.92,NE,40,4.0,5.0,64,0.00,,,0.00,Wunderground v.1.15,2013-01-19 15:35:00,
2013-01-19 05:45:00,68.9,56.6,29.92,NE,38,4.0,5.0,65,0.00,,,0.00,Wunderground v.1.15,2013-01-19 15:45:00,
2013-01-19 05:55:00,68.9,54.9,29.93,NE,39,5.0,7.0,61,0.00,,,0.00,Wunderground v.1.15,2013-01-19 15:55:00,
2013-01-19 06:00:00,68.9,56.2,29.93,NE,36,5.0,5.0,64,0.00,,,0.00,Wunderground v.1.15,2013-01-19 16:00:00,
2013-01-19 06:10:00,69.2,56.1,29.94,NE,49,6.0,6.0,63,0.00,,,0.00,Wunderground v.1.15,2013-01-19 16:10:00,
2013-01-19 06:20:00,69.1,55.5,29.94,NE,56,7.0,7.0,62,0.00,,,0.00,Wunderground v.1.15,2013-01-19 16:20:00,
2013-01-19 06:30:00,68.9,55.3,29.94,NNE,32,5.0,5.0,62,0.00,,,0.00,Wunderground v.1.15,2013-01-19 16:30:00,
2013-01-19 06:35:00,68.9,56.2,29.94,NNW,338,5.0,5.0,64,0.00,,,0.00,Wunderground v.1.15,2013-01-19 16:35:00,
2013-01-19 06:45:00,69.0,56.3,29.94,NW,326,5.0,5.0,64,0.00,,,0.00,Wunderground v.1.15,2013-01-19 16:45:00,
2013-01-19 06:50:00,69.1,55.5,29.95,North,360,5.0,6.0,62,0.00,,,0.00,Wunderground v.1.15,2013-01-19 16:50:00,
2013-01-19 07:00:00,69.1,56.4,29.95,NW,314,5.0,9.0,64,0.00,,,0.00,Wunderground v.1.15,2013-01-19 17:00:00,
2013-01-19 07:10:00,69.1,56.4,29.95,NE,45,5.0,5.0,64,0.00,,,0.00,Wunderground v.1.15,2013-01-19 17:10:00,
2013-01-19 07:20:00,69.2,56.1,29.96,NE,34,6.0,7.0,63,0.00,,,0.00,Wunderground v.1.15,2013-01-19 17:20:00,
2013-01-19 07:25:00,69.1,55.5,29.96,NNE,25,5.0,7.0,62,0.00,,,0.00,Wunderground v.1.15,2013-01-19 17:25:00,
2013-01-19 07:35:00,69.1,55.5,29.96,NE,38,5.0,5.0,62,0.00,,,0.00,Wunderground v.1.15,2013-01-19 17:35:00,
2013-01-19 07:40:00,69.1,55.1,29.96,NNE,26,6.0,8.0,61,0.00,,,0.00,Wunderground v.1.15,2013-01-19 17:40:00,
2013-01-19 07:50:00,69.2,55.6,29.96,NNE,32,5.0,5.0,62,0.00,,,0.00,Wunderground v.1.15,2013-01-19 17:50:00,
2013-01-19 08:00:00,69.6,56.9,29.97,NNE,21,4.0,4.0,64,0.00,,,0.00,Wunderground v.1.15,2013-01-19 18:00:00,
2013-01-19 08:05:00,69.8,57.1,29.97,NNE,31,4.0,4.0,64,0.00,,,0.00,Wunderground v.1.15,2013-01-19 18:05:00,
2013-01-19 08:15:00,69.8,57.9,29.97,NNE,23,7.0,13.0,66,0.00,,,0.00,Wunderground v.1.15,2013-01-19 18:15:00,
2013-01-19 08:25:00,69.7,56.5,29.97,NNW,340,6.0,7.0,63,0.00,,,0.00,Wunderground v.1.15,2013-01-19 18:25:00,
2013-01-19 08:35:00,69.5,56.3,29.97,NE,46,6.0,6.0,63,0.00,,,0.00,Wunderground v.1.15,2013-01-19 18:35:00,
2013-01-19 08:45:00,69.6,55.6,29.98,NNE,28,4.0,7.0,61,0.00,,,0.00,Wunderground v.1.15,2013-01-19 18:45:00,
2013-01-19 08:50:00,70.2,56.1,29.98,NE,36,4.0,5.0,61,0.00,,,0.00,Wunderground v.1.15,2013-01-19 18:50:00,
2013-01-19 09:00:00,71.0,55.5,29.98,NNE,30,4.0,4.0,58,0.00,,,0.00,Wunderground v.1.15,2013-01-19 19:00:00,
2013-01-19 09:05:00,71.5,55.9,29.98,NNE,30,3.0,4.0,58,0.00,,,0.00,Wunderground v.1.15,2013-01-19 19:05:00,
2013-01-19 09:15:00,71.6,56.5,29.98,NNW,328,3.0,3.0,59,0.00,,,0.00,Wunderground v.1.15,2013-01-19 19:15:00,
2013-01-19 09:20:00,71.3,57.2,29.98,NNE,17,4.0,4.0,61,0.00,,,0.00,Wunderground v.1.15,2013-01-19 19:20:00,
2013-01-19 09:30:00,71.3,57.6,29.98,NE,39,3.0,3.0,62,0.00,,,0.00,Wunderground v.1.15,2013-01-19 19:30:00,
2013-01-19 09:35:00,71.7,58.0,29.98,NE,38,2.0,3.0,62,0.00,,,0.00,Wunderground v.1.15,2013-01-19 19:35:00,
2013-01-19 09:45:00,71.5,56.9,29.98,NNE,32,3.0,5.0,60,0.00,,,0.00,Wunderground v.1.15,2013-01-19 19:45:00,
2013-01-19 10:05:00,72.2,57.5,29.98,NNE,28,4.0,6.0,60,0.00,,,0.00,Wunderground v.1.15,2013-01-19 20:05:00,
2013-01-19 10:15:00,72.4,57.7,29.98,NNE,21,4.0,4.0,60,0.00,,,0.00,Wunderground v.1.15,2013-01-19 20:15:00,
2013-01-19 10:20:00,72.5,57.8,29.99,NNE,13,4.0,4.0,60,0.00,,,0.00,Wunderground v.1.15,2013-01-19 20:20:00,
2013-01-19 10:25:00,72.5,56.9,29.99,NE,36,4.0,4.0,58,0.00,,,0.00,Wunderground v.1.15,2013-01-19 20:25:00,
2013-01-19 10:30:00,72.3,57.6,29.99,NNE,20,4.0,6.0,60,0.00,,,0.00,Wunderground v.1.15,2013-01-19 20:30:00,
2013-01-19 10:35:00,72.6,57.9,29.98,NNE,19,4.0,6.0,60,0.00,,,0.00,Wunderground v.1.15,2013-01-19 20:35:00,
2013-01-19 10:45:00,72.6,57.9,29.98,NNE,21,5.0,7.0,60,0.00,,,0.00,Wunderground v.1.15,2013-01-19 20:45:00,
2013-01-19 10:50:00,72.7,58.0,29.98,NNE,32,5.0,6.0,60,0.00,,,0.00,Wunderground v.1.15,2013-01-19 20:50:00,
2013-01-19 11:00:00,72.9,58.2,29.98,NE,37,5.0,5.0,60,0.00,,,0.00,Wunderground v.1.15,2013-01-19 21:00:00,
2013-01-19 11:05:00,72.8,58.1,29.98,NE,39,5.0,5.0,60,0.00,,,0.00,Wunderground v.1.15,2013-01-19 21:05:00,
2013-01-19 11:25:00,73.1,57.4,29.97,NNE,32,6.0,9.0,58,0.00,,,0.00,Wunderground v.1.15,2013-01-19 21:25:00,
2013-01-19 11:30:00,73.1,56.0,29.97,NNE,14,6.0,6.0,55,0.00,,,0.00,Wunderground v.1.15,2013-01-19 21:30:00,
2013-01-19 11:45:00,73.7,58.0,29.97,NNE,18,4.0,4.0,58,0.00,,,0.00,Wunderground v.1.15,2013-01-19 21:45:00,
2013-01-19 11:55:00,73.7,58.5,29.96,NE,42,4.0,4.0,59,0.00,,,0.00,Wunderground v.1.15,2013-01-19 21:55:00,
2013-01-19 12:00:00,73.7,57.5,29.96,NNE,20,5.0,7.0,57,0.00,,,0.00,Wunderground v.1.15,2013-01-19 22:00:00,
2013-01-19 12:05:00,73.5,57.8,29.96,NNE,32,5.0,7.0,58,0.00,,,0.00,Wunderground v.1.15,2013-01-19 22:05:00,
2013-01-19 12:15:00,73.2,58.0,29.95,NE,44,5.0,8.0,59,0.00,,,0.00,Wunderground v.1.15,2013-01-19 22:15:00,
2013-01-19 12:20:00,73.3,59.0,29.95,NNE,31,6.0,6.0,61,0.00,,,0.00,Wunderground v.1.15,2013-01-19 22:20:00,
2013-01-19 12:25:00,73.6,58.4,29.95,NNE,32,5.0,8.0,59,0.00,,,0.00,Wunderground v.1.15,2013-01-19 22:25:00,
2013-01-19 12:30:00,73.7,58.9,29.94,NE,37,4.0,6.0,60,0.00,,,0.00,Wunderground v.1.15,2013-01-19 22:30:00,
2013-01-19 12:40:00,73.7,60.3,29.94,NW,318,5.0,5.0,63,0.00,,,0.00,Wunderground v.1.15,2013-01-19 22:40:00,
2013-01-19 12:45:00,74.0,59.2,29.93,NNE,25,4.0,6.0,60,0.00,,,0.00,Wunderground v.1.15,2013-01-19 22:45:00,
2013-01-19 12:55:00,73.9,58.7,29.92,NE,37,5.0,5.0,59,0.00,,,0.00,Wunderground v.1.15,2013-01-19 22:55:00,
2013-01-19 13:00:00,74.0,59.2,29.92,NE,38,4.0,5.0,60,0.00,,,0.00,Wunderground v.1.15,2013-01-19 23:00:00,
2013-01-19 13:05:00,74.0,58.3,29.92,NNE,13,4.0,9.0,58,0.00,,,0.00,Wunderground v.1.15,2013-01-19 23:05:00,
2013-01-19 13:15:00,74.0,57.8,29.92,NNE,28,5.0,5.0,57,0.00,,,0.00,Wunderground v.1.15,2013-01-19 23:15:00,
2013-01-19 13:25:00,73.7,56.0,29.91,NNE,23,7.0,10.0,54,0.00,,,0.00,Wunderground v.1.15,2013-01-19 23:25:00,
2013-01-19 13:35:00,73.5,56.8,29.91,NE,37,8.0,10.0,56,0.00,,,0.00,Wunderground v.1.15,2013-01-19 23:35:00,
2013-01-19 13:45:00,73.7,56.5,29.90,NNE,32,6.0,7.0,55,0.00,,,0.00,Wunderground v.1.15,2013-01-19 23:45:00,
2013-01-19 13:55:00,73.7,56.0,29.90,NE,34,6.0,10.0,54,0.00,,,0.00,Wunderground v.1.15,2013-01-19 23:55:00,
2013-01-19 14:00:00,73.7,55.0,29.90,NE,34,7.0,10.0,52,0.00,,,0.00,Wunderground v.1.15,2013-01-20 00:00:00,
2013-01-19 14:05:00,73.5,56.3,29.90,NE,34,7.0,10.0,55,0.00,,,0.00,Wunderground v.1.15,2013-01-20 00:05:00,
2013-01-19 14:15:00,73.7,56.5,29.89,NNE,28,5.0,11.0,55,0.00,,,0.00,Wunderground v.1.15,2013-01-20 00:15:00,
2013-01-19 14:20:00,73.7,58.0,29.90,North,10,6.0,6.0,58,0.00,,,0.00,Wunderground v.1.15,2013-01-20 00:20:00,
2013-01-19 14:25:00,73.8,58.6,29.90,North,5,6.0,6.0,59,0.00,,,0.00,Wunderground v.1.15,2013-01-20 00:25:00,
2013-01-19 14:35:00,73.8,58.6,29.90,NNE,31,6.0,7.0,59,0.00,,,0.00,Wunderground v.1.15,2013-01-20 00:35:00,
2013-01-19 14:40:00,73.6,59.3,29.90,NE,42,6.0,6.0,61,0.00,,,0.00,Wunderground v.1.15,2013-01-20 00:40:00,
2013-01-19 14:50:00,73.7,59.4,29.90,NNE,24,6.0,6.0,61,0.00,,,0.00,Wunderground v.1.15,2013-01-20 00:50:00,
2013-01-19 14:55:00,73.6,59.3,29.90,NE,42,6.0,9.0,61,0.00,,,0.00,Wunderground v.1.15,2013-01-20 00:55:00,
2013-01-19 15:05:00,73.5,59.2,29.90,North,355,6.0,6.0,61,0.00,,,0.00,Wunderground v.1.15,2013-01-20 01:05:00,
2013-01-19 15:15:00,73.9,60.1,29.90,North,5,6.0,6.0,62,0.00,,,0.00,Wunderground v.1.15,2013-01-20 01:15:00,
2013-01-19 15:20:00,74.0,60.2,29.90,NE,38,5.0,5.0,62,0.00,,,0.00,Wunderground v.1.15,2013-01-20 01:20:00,
2013-01-19 15:25:00,74.2,61.2,29.90,NNW,334,5.0,5.0,64,0.00,,,0.00,Wunderground v.1.15,2013-01-20 01:25:00,
2013-01-19 15:35:00,73.2,61.6,29.91,NNE,33,6.0,7.0,67,0.00,,,0.00,Wunderground v.1.15,2013-01-20 01:35:00,
2013-01-19 15:45:00,73.0,61.4,29.91,WNW,300,5.0,6.0,67,0.00,,,0.00,Wunderground v.1.15,2013-01-20 01:45:00,
2013-01-19 16:05:00,72.9,60.9,29.91,NNE,31,7.0,7.0,66,0.00,,,0.00,Wunderground v.1.15,2013-01-20 02:05:00,
2013-01-19 16:15:00,72.6,60.6,29.92,NNE,18,7.0,7.0,66,0.00,,,0.00,Wunderground v.1.15,2013-01-20 02:15:00,
2013-01-19 16:20:00,72.6,61.0,29.92,NNW,331,7.0,7.0,67,0.00,,,0.00,Wunderground v.1.15,2013-01-20 02:20:00,
2013-01-19 16:30:00,72.6,60.6,29.92,NNE,26,7.0,7.0,66,0.00,,,0.00,Wunderground v.1.15,2013-01-20 02:30:00,
2013-01-19 16:40:00,72.6,61.0,29.92,NNE,22,8.0,8.0,67,0.00,,,0.00,Wunderground v.1.15,2013-01-20 02:40:00,
2013-01-19 16:45:00,72.7,60.3,29.93,NNE,24,7.0,8.0,65,0.00,,,0.00,Wunderground v.1.15,2013-01-20 02:45:00,
2013-01-19 16:55:00,72.6,59.7,29.93,NNE,17,7.0,7.0,64,0.00,,,0.00,Wunderground v.1.15,2013-01-20 02:55:00,
2013-01-19 17:00:00,72.5,59.6,29.93,NNE,17,7.0,10.0,64,0.00,,,0.00,Wunderground v.1.15,2013-01-20 03:00:00,
2013-01-19 17:05:00,72.4,58.6,29.94,NNE,19,7.0,10.0,62,0.00,,,0.00,Wunderground v.1.15,2013-01-20 03:05:00,
2013-01-19 17:15:00,72.3,59.0,29.94,NNE,30,7.0,10.0,63,0.00,,,0.00,Wunderground v.1.15,2013-01-20 03:15:00,
2013-01-19 17:25:00,72.1,59.7,29.94,NE,46,6.0,7.0,65,0.00,,,0.00,Wunderground v.1.15,2013-01-20 03:25:00,
2013-01-19 17:30:00,72.0,59.2,29.94,NE,35,5.0,5.0,64,0.00,,,0.00,Wunderground v.1.15,2013-01-20 03:30:00,
2013-01-19 17:35:00,71.8,59.4,29.95,NE,37,5.0,5.0,65,0.00,,,0.00,Wunderground v.1.15,2013-01-20 03:35:00,
2013-01-19 17:50:00,71.5,58.2,29.96,NE,36,7.0,7.0,63,0.00,,,0.00,Wunderground v.1.15,2013-01-20 03:50:00,
2013-01-19 18:00:00,71.3,57.6,29.96,NNE,18,5.0,5.0,62,0.00,,,0.00,Wunderground v.1.15,2013-01-20 04:00:00,
2013-01-19 18:05:00,71.3,58.5,29.96,NE,44,5.0,5.0,64,0.00,,,0.00,Wunderground v.1.15,2013-01-20 04:05:00,
2013-01-19 18:15:00,71.2,58.8,29.96,North,11,5.0,5.0,65,0.00,,,0.00,Wunderground v.1.15,2013-01-20 04:15:00,
2013-01-19 18:30:00,71.2,58.4,29.97,NNE,13,5.0,6.0,64,0.00,,,0.00,Wunderground v.1.15,2013-01-20 04:30:00,
2013-01-19 18:35:00,71.3,58.1,29.97,NNE,27,6.0,6.0,63,0.00,,,0.00,Wunderground v.1.15,2013-01-20 04:35:00,
2013-01-19 18:45:00,71.4,57.7,29.98,NNE,30,7.0,7.0,62,0.00,,,0.00,Wunderground v.1.15,2013-01-20 04:45:00,
2013-01-19 18:50:00,71.4,57.2,29.98,NNE,30,7.0,7.0,61,0.00,,,0.00,Wunderground v.1.15,2013-01-20 04:50:00,
2013-01-19 18:55:00,71.3,56.2,29.98,NE,37,6.0,7.0,59,0.00,,,0.00,Wunderground v.1.15,2013-01-20 04:55:00,
2013-01-19 19:05:00,71.2,57.1,29.98,NNE,30,5.0,5.0,61,0.00,,,0.00,Wunderground v.1.15,2013-01-20 05:05:00,
2013-01-19 19:10:00,71.2,58.0,29.98,WNW,300,4.0,5.0,63,0.00,,,0.00,Wunderground v.1.15,2013-01-20 05:10:00,
2013-01-19 19:15:00,71.2,58.4,29.98,North,360,5.0,5.0,64,0.00,,,0.00,Wunderground v.1.15,2013-01-20 05:15:00,
2013-01-19 19:30:00,71.2,58.8,29.98,NNE,22,6.0,6.0,65,0.00,,,0.00,Wunderground v.1.15,2013-01-20 05:30:00,
2013-01-19 19:40:00,71.0,60.7,29.99,NE,37,8.0,8.0,70,0.00,,,0.00,Wunderground v.1.15,2013-01-20 05:40:00,
2013-01-19 19:45:00,70.8,59.3,29.99,NE,42,9.0,9.0,67,0.00,,,0.00,Wunderground v.1.15,2013-01-20 05:45:00,
2013-01-19 19:50:00,70.8,58.9,29.99,NE,35,8.0,8.0,66,0.00,,,0.00,Wunderground v.1.15,2013-01-20 05:50:00,
2013-01-19 19:55:00,70.7,58.4,29.99,NNE,26,8.0,8.0,65,0.00,,,0.00,Wunderground v.1.15,2013-01-20 05:55:00,
2013-01-19 20:00:00,70.8,58.4,29.99,NE,40,8.0,10.0,65,0.00,,,0.00,Wunderground v.1.15,2013-01-20 06:00:00,
2013-01-19 20:05:00,70.7,57.9,29.99,NNE,13,8.0,10.0,64,0.00,,,0.00,Wunderground v.1.15,2013-01-20 06:05:00,
2013-01-19 20:15:00,70.6,57.4,30.00,NNE,30,8.0,10.0,63,0.00,,,0.00,Wunderground v.1.15,2013-01-20 06:15:00,
2013-01-19 20:20:00,70.6,56.5,30.00,NNE,12,7.0,11.0,61,0.00,,,0.00,Wunderground v.1.15,2013-01-20 06:20:00,
2013-01-19 20:25:00,70.7,57.9,30.00,NNE,14,8.0,11.0,64,0.00,,,0.00,Wunderground v.1.15,2013-01-20 06:25:00,
2013-01-19 20:35:00,70.7,56.6,30.00,NNE,31,8.0,12.0,61,0.00,,,0.00,Wunderground v.1.15,2013-01-20 06:35:00,
2013-01-19 20:40:00,70.6,56.9,30.01,NNE,28,8.0,10.0,62,0.00,,,0.00,Wunderground v.1.15,2013-01-20 06:40:00,
2013-01-19 20:45:00,70.6,56.9,30.00,NNE,28,8.0,12.0,62,0.00,,,0.00,Wunderground v.1.15,2013-01-20 06:45:00,
2013-01-19 20:55:00,70.7,57.5,30.00,NE,53,7.0,8.0,63,0.00,,,0.00,Wunderground v.1.15,2013-01-20 06:55:00,
2013-01-19 21:05:00,70.6,57.4,30.01,NE,38,7.0,8.0,63,0.00,,,0.00,Wunderground v.1.15,2013-01-20 07:05:00,
2013-01-19 21:15:00,70.5,57.3,30.01,NNE,30,7.0,7.0,63,0.00,,,0.00,Wunderground v.1.15,2013-01-20 07:15:00,
2013-01-19 21:20:00,70.6,57.8,30.01,NNE,30,7.0,7.0,64,0.00,,,0.00,Wunderground v.1.15,2013-01-20 07:20:00,
2013-01-19 21:25:00,70.6,59.1,30.01,NNE,18,7.0,7.0,67,0.00,,,0.00,Wunderground v.1.15,2013-01-20 07:25:00,
2013-01-19 21:35:00,70.6,58.7,30.01,NNE,33,6.0,8.0,66,0.00,,,0.00,Wunderground v.1.15,2013-01-20 07:35:00,
2013-01-19 21:40:00,70.6,58.3,30.01,NNW,341,7.0,7.0,65,0.00,,,0.00,Wunderground v.1.15,2013-01-20 07:40:00,
2013-01-19 21:50:00,70.5,59.0,30.01,NE,42,6.0,6.0,67,0.00,,,0.00,Wunderground v.1.15,2013-01-20 07:50:00,
2013-01-19 21:55:00,70.5,59.0,30.01,NE,34,6.0,8.0,67,0.00,,,0.00,Wunderground v.1.15,2013-01-20 07:55:00,
2013-01-19 22:05:00,70.7,57.9,30.01,NNE,33,7.0,7.0,64,0.00,,,0.00,Wunderground v.1.15,2013-01-20 08:05:00,
2013-01-19 22:15:00,70.7,58.4,30.01,NNE,28,7.0,7.0,65,0.00,,,0.00,Wunderground v.1.15,2013-01-20 08:15:00,
2013-01-19 22:25:00,70.8,57.1,30.02,North,355,7.0,7.0,62,0.00,,,0.00,Wunderground v.1.15,2013-01-20 08:25:00,
2013-01-19 22:35:00,70.7,58.4,30.02,NE,34,9.0,12.0,65,0.00,,,0.00,Wunderground v.1.15,2013-01-20 08:35:00,
2013-01-19 22:40:00,70.6,58.7,30.01,NNE,25,8.0,8.0,66,0.00,,,0.00,Wunderground v.1.15,2013-01-20 08:40:00,
2013-01-19 22:45:00,70.7,59.2,30.01,North,360,8.0,13.0,67,0.00,,,0.00,Wunderground v.1.15,2013-01-20 08:45:00,
2013-01-19 22:50:00,70.6,57.8,30.01,NE,41,9.0,9.0,64,0.00,,,0.00,Wunderground v.1.15,2013-01-20 08:50:00,
2013-01-19 22:55:00,70.6,59.1,30.01,NNE,23,9.0,9.0,67,0.00,,,0.00,Wunderground v.1.15,2013-01-20 08:55:00,
2013-01-19 23:05:00,70.7,59.6,30.01,NE,34,9.0,10.0,68,0.00,,,0.00,Wunderground v.1.15,2013-01-20 09:05:00,
2013-01-19 23:15:00,70.8,58.9,30.01,NNW,333,8.0,9.0,66,0.00,,,0.00,Wunderground v.1.15,2013-01-20 09:15:00,
2013-01-19 23:25:00,70.8,57.1,30.01,ENE,57,9.0,9.0,62,0.00,,,0.00,Wunderground v.1.15,2013-01-20 09:25:00,
2013-01-19 23:30:00,70.7,58.8,30.01,NNE,28,9.0,9.0,66,0.00,,,0.00,Wunderground v.1.15,2013-01-20 09:30:00,
2013-01-19 23:40:00,70.6,58.3,30.01,NNE,32,9.0,9.0,65,0.00,,,0.00,Wunderground v.1.15,2013-01-20 09:40:00,
2013-01-19 23:45:00,70.6,58.7,30.01,NE,36,9.0,9.0,66,0.00,,,0.00,Wunderground v.1.15,2013-01-20 09:45:00,
2013-01-19 23:50:00,70.6,58.7,30.01,NE,37,9.0,11.0,66,0.00,,,0.00,Wunderground v.1.15,2013-01-20 09:50:00,